Tracking 25193 objects as of 19-Jan-2022
HD Live streaming from Space Station
objects crossing your sky now

CZ-6 R/B

Track CZ-6 R/B now!
10-day predictions


NORAD ID: 44784
Int'l Code: 2019-076F
Perigee: 776.2 km
Apogee: 905.9 km
Inclination: 45.0 °
Period: 101.6 minutes
Semi major axis: 7212 km
RCS: Unknown
Launch date: November 13, 2019
Source: People's Republic of China (PRC)
Launch site: Taiyaun Space Center, China (TSC)

Note: This is a ROCKET BODY
aabbcc
Your satellite tracking list
Your tracking list is empty




NASA's NSSDC Master Catalog

Two Line Element Set (TLE):
1 44784U 19076F   22018.47378296 -.00000073  00000-0  28621-4 0  9993
2 44784  45.0079  80.1853 0089926 272.5285  86.5263 14.17478761113117
Source of the keplerian elements: AFSPC